User: anonymous
Location: Caltech
(34.1382°N, 118.1253°W)
Time: 20:41:23
(UTC-07:00)
Language:

KITSAT 1 - Orbit

View from above orbital plane
View from above orbital plane
View from above satellite
View from above satellite

Ground track
Ground track

The orbit data is extracted from the following two-line orbital elements,

1 22077U 92052B   14292.26661006 -.00000006  00000-0  22331-3 0  7349
2 22077 066.0854 202.3676 0002297 184.8768 257.2272 12.86495896 42367
Epoch (UTC): 19 October 2014 06:23:55
Eccentricity: 0.0002297
inclination: 66.0854°
perigee height: 1313 km
apogee height: 1317 km
right ascension of ascending node: 202.3676°
argument of perigee: 184.8768°
revolutions per day: 12.86495896
mean anomaly at epoch: 257.2272°
orbit number at epoch: 4236

The dashed part of the orbit path shows where the satellite is in the earth's shadow,  

DLR